Simultaneous Nadir Overpasses (SNOs) Predictions

Prediction of SNOs between GOES-17 and NPP Satellite Orbit:

Table of predicted SNOs for the next 14.0 days since TLE Epoch: 2/24/2024
Index Date Time (GOES-17) GOES-17 Lat,Lon NPP Lat,Lon Distance(km) Time Diff (sec)
1 02/24/2024 20:17:48 -0.02,-104.66 0.41,-102.82 209.59 80
2 02/26/2024 08:39:34 0.02,-104.69 0.79,-108.08 387.26 80
3 02/27/2024 08:18:08 0.02,-104.69 -0.22,-103.55 129.54 80
4 02/28/2024 20:40:04 -0.02,-104.66 -0.95,-108.85 477.28 80
5 02/29/2024 20:23:58 -0.02,-104.66 0.06,-104.32 39.60 80
6 03/03/2024 08:26:59 0.03,-104.69 0.11,-105.04 40.63 80
7 03/04/2024 08:05:34 0.03,-104.68 -0.90,-100.51 475.80 80
8 03/05/2024 20:27:28 -0.04,-104.64 -0.31,-105.80 131.83 80
9 03/06/2024 20:11:22 -0.04,-104.64 0.71,-101.27 384.65 80
10 03/08/2024 08:33:09 0.04,-104.67 0.47,-106.53 212.49 80
